Hourly Weather Russkiy Urmat

Today, 20 April, Tuesday

Time Temperature Precipitation Wind Pressure Humidity
00:00 -1°C° 0 mm 5 mps 763 mmHg 50%
01:00 -2°C° 0 mm 5 mps 763 mmHg 51%
02:00 -2°C° 0 mm 5 mps 763 mmHg 52%
03:00 -2°C° 0 mm 5 mps 763 mmHg 53%
04:00 -2°C° 0 mm 5 mps 764 mmHg 54%
05:00 -2°C° 0 mm 5 mps 764 mmHg 54%
06:00 -1°C° 0 mm 4 mps 764 mmHg 55%
07:00 0°C° 0 mm 5 mps 764 mmHg 48%
08:00 +2°C° 0 mm 6 mps 764 mmHg 41%
09:00 +4°C° 0 mm 6 mps 764 mmHg 35%
10:00 +4°C° 0 mm 6 mps 764 mmHg 33%
11:00 +5°C° 0 mm 6 mps 764 mmHg 31%
12:00 +6°C° 0 mm 7 mps 764 mmHg 29%
13:00 +7°C° 0 mm 6 mps 763 mmHg 28%
14:00 +8°C° 0 mm 6 mps 763 mmHg 27%
15:00 +8°C° 0 mm 6 mps 763 mmHg 27%
16:00 +7°C° 0 mm 6 mps 762 mmHg 30%
17:00 +7°C° 0 mm 5 mps 762 mmHg 34%
18:00 +6°C° 0 mm 5 mps 761 mmHg 37%
19:00 +5°C° 0 mm 5 mps 761 mmHg 41%
20:00 +3°C° 0 mm 5 mps 761 mmHg 45%
21:00 +2°C° 0 mm 5 mps 761 mmHg 49%
22:00 +1°C° 0 mm 5 mps 761 mmHg 50%
23:00 +1°C° 0 mm 5 mps 761 mmHg 51%

Tomorrow, 21 April, Wednesday

Time Temperature Precipitation Wind Pressure Humidity
00:00 +1°C° 0 mm 5 mps 761 mmHg 52%
01:00 +1°C° 0 mm 5 mps 761 mmHg 53%
02:00 -1°C° 0 mm 6 mps 760 mmHg 53%
03:00 -1°C° 0 mm 6 mps 760 mmHg 53%
04:00 -1°C° 0 mm 7 mps 760 mmHg 53%
05:00 0°C° 0 mm 7 mps 759 mmHg 52%
06:00 0°C° 0 mm 8 mps 759 mmHg 51%
07:00 +1°C° 0 mm 8 mps 759 mmHg 48%
08:00 +2°C° 0 mm 9 mps 758 mmHg 46%
09:00 +2°C° 0 mm 9 mps 758 mmHg 43%
10:00 +3°C° 0.1 mm 9 mps 758 mmHg 43%
11:00 +5°C° 0.1 mm 9 mps 758 mmHg 44%
12:00 +5°C° 0.1 mm 9 mps 758 mmHg 44%
13:00 +3°C° 0.1 mm 9 mps 758 mmHg 51%
14:00 +2°C° 0.1 mm 9 mps 758 mmHg 59%
15:00 +1°C° 0.1 mm 9 mps 758 mmHg 66%
16:00 0°C° 0.4 mm 9 mps 758 mmHg 76%
17:00 0°C° 0.4 mm 8 mps 758 mmHg 86%
18:00 -1°C° 0.4 mm 8 mps 757 mmHg 96%
19:00 -1°C° 0.6 mm 8 mps 757 mmHg 96%
20:00 -1°C° 0.6 mm 7 mps 757 mmHg 96%
21:00 -1°C° 0.6 mm 7 mps 757 mmHg 96%
22:00 -1°C° 0.3 mm 7 mps 757 mmHg 96%
23:00 -1°C° 0.3 mm 7 mps 757 mmHg 96%

Day after tomorrow, 22 April, Thursday

Time Temperature Precipitation Wind Pressure Humidity
00:00 -1°C° 0.3 mm 6 mps 757 mmHg 97%
01:00 -1°C° 0.3 mm 6 mps 757 mmHg 97%
02:00 -2°C° 0.3 mm 6 mps 757 mmHg 97%
03:00 -2°C° 0.3 mm 6 mps 757 mmHg 97%
04:00 -2°C° 0.2 mm 6 mps 757 mmHg 97%
05:00 -1°C° 0.2 mm 6 mps 757 mmHg 97%
06:00 -1°C° 0.2 mm 6 mps 757 mmHg 97%
07:00 0°C° 0.1 mm 5 mps 757 mmHg 97%
08:00 0°C° 0.1 mm 5 mps 757 mmHg 97%
09:00 +1°C° 0.1 mm 5 mps 757 mmHg 96%
10:00 +2°C° 0 mm 5 mps 757 mmHg 96%
11:00 +2°C° 0 mm 5 mps 757 mmHg 95%
12:00 +3°C° 0 mm 5 mps 758 mmHg 94%
13:00 +5°C° 0 mm 5 mps 758 mmHg 92%
14:00 +6°C° 0 mm 5 mps 758 mmHg 91%
15:00 +6°C° 0 mm 5 mps 758 mmHg 89%
16:00 +6°C° 0 mm 5 mps 758 mmHg 90%
17:00 +6°C° 0 mm 5 mps 758 mmHg 91%
18:00 +6°C° 0 mm 5 mps 758 mmHg 93%
19:00 +6°C° 0 mm 5 mps 758 mmHg 93%
20:00 +6°C° 0 mm 5 mps 759 mmHg 93%
21:00 +6°C° 0 mm 5 mps 759 mmHg 93%
22:00 +5°C° 0 mm 5 mps 759 mmHg 94%
23:00 +5°C° 0 mm 5 mps 759 mmHg 94%

23 April, Friday

Time Temperature Precipitation Wind Pressure Humidity
00:00 +5°C° 0 mm 5 mps 758 mmHg 95%
01:00 +3°C° 0 mm 5 mps 759 mmHg 95%
02:00 +4°C° 0 mm 4 mps 759 mmHg 95%
03:00 +4°C° 0 mm 4 mps 759 mmHg 96%
04:00 +4°C° 0 mm 4 mps 759 mmHg 96%
05:00 +4°C° 0 mm 4 mps 759 mmHg 96%
06:00 +4°C° 0 mm 3 mps 759 mmHg 96%
07:00 +4°C° 0 mm 4 mps 759 mmHg 94%
08:00 +4°C° 0 mm 4 mps 760 mmHg 92%
09:00 +5°C° 0 mm 4 mps 760 mmHg 90%
10:00 +6°C° 0 mm 4 mps 760 mmHg 84%
11:00 +8°C° 0 mm 4 mps 760 mmHg 78%
12:00 +10°C° 0 mm 4 mps 760 mmHg 72%
13:00 +11°C° 0 mm 4 mps 759 mmHg 69%
14:00 +12°C° 0 mm 4 mps 759 mmHg 67%
15:00 +12°C° 0 mm 4 mps 759 mmHg 64%
16:00 +11°C° 0 mm 4 mps 759 mmHg 68%
17:00 +11°C° 0 mm 4 mps 759 mmHg 72%
18:00 +10°C° 0 mm 3 mps 759 mmHg 76%
19:00 +9°C° 0 mm 3 mps 759 mmHg 80%
20:00 +8°C° 0 mm 3 mps 759 mmHg 84%
21:00 +7°C° 0 mm 3 mps 759 mmHg 88%
22:00 +7°C° 0 mm 3 mps 758 mmHg 89%
23:00 +6°C° 0 mm 2 mps 758 mmHg 91%

24 April, Saturday

Time Temperature Precipitation Wind Pressure Humidity
00:00 +5°C° 0 mm 2 mps 758 mmHg 92%
01:00 +5°C° 0 mm 2 mps 758 mmHg 92%
02:00 +5°C° 0 mm 2 mps 758 mmHg 93%
03:00 +4°C° 0 mm 2 mps 757 mmHg 94%
04:00 +5°C° 0 mm 2 mps 757 mmHg 92%
05:00 +5°C° 0 mm 2 mps 757 mmHg 91%
06:00 +4°C° 0 mm 3 mps 757 mmHg 89%
07:00 +5°C° 0 mm 3 mps 756 mmHg 84%
08:00 +7°C° 0 mm 3 mps 756 mmHg 78%
09:00 +9°C° 0 mm 3 mps 755 mmHg 72%
10:00 +9°C° 0 mm 3 mps 755 mmHg 69%
11:00 +10°C° 0 mm 3 mps 755 mmHg 66%
12:00 +11°C° 0 mm 3 mps 754 mmHg 63%
13:00 +11°C° 0 mm 3 mps 754 mmHg 66%
14:00 +10°C° 0 mm 3 mps 753 mmHg 68%
15:00 +10°C° 0 mm 4 mps 753 mmHg 70%
16:00 +9°C° 0 mm 3 mps 753 mmHg 74%
17:00 +9°C° 0 mm 3 mps 753 mmHg 78%
18:00 +8°C° 0 mm 2 mps 753 mmHg 82%
19:00 +8°C° 0 mm 2 mps 753 mmHg 85%
20:00 +7°C° 0 mm 2 mps 752 mmHg 87%
21:00 +7°C° 0 mm 2 mps 752 mmHg 89%
22:00 +6°C° 0 mm 2 mps 752 mmHg 91%
23:00 +6°C° 0 mm 2 mps 752 mmHg 92%

25 April, Sunday

Time Temperature Precipitation Wind Pressure Humidity
00:00 +5°C° 0 mm 2 mps 751 mmHg 93%
01:00 +5°C° 0 mm 2 mps 751 mmHg 94%
02:00 +3°C° 0 mm 3 mps 751 mmHg 94%
03:00 +3°C° 0 mm 3 mps 751 mmHg 95%
04:00 +3°C° 0 mm 3 mps 751 mmHg 93%
05:00 +4°C° 0 mm 3 mps 751 mmHg 92%
06:00 +4°C° 0 mm 3 mps 751 mmHg 90%
07:00 +5°C° 0.1 mm 4 mps 751 mmHg 88%
08:00 +6°C° 0.1 mm 4 mps 751 mmHg 85%
09:00 +7°C° 0.1 mm 4 mps 751 mmHg 83%
10:00 +8°C° 0.2 mm 4 mps 751 mmHg 79%
11:00 +11°C° 0.2 mm 4 mps 751 mmHg 74%
12:00 +12°C° 0.2 mm 5 mps 751 mmHg 70%
13:00 +12°C° 0.1 mm 4 mps 751 mmHg 67%
14:00 +12°C° 0.1 mm 4 mps 751 mmHg 64%
15:00 +12°C° 0.1 mm 4 mps 751 mmHg 62%
16:00 +12°C° 0.1 mm 3 mps 751 mmHg 64%
17:00 +11°C° 0.1 mm 3 mps 751 mmHg 67%
18:00 +12°C° 0.1 mm 2 mps 751 mmHg 70%
19:00 +10°C° 0.3 mm 2 mps 751 mmHg 75%
20:00 +9°C° 0.3 mm 2 mps 751 mmHg 80%
21:00 +9°C° 0.3 mm 1 mps 751 mmHg 86%
22:00 +9°C° 0 mm 1 mps 751 mmHg 86%
23:00 +9°C° 0 mm 1 mps 751 mmHg 86%
Show more